HBPJA EPKW-EPWR

Flight info

Callsign HBPJA
Flight time N/A
Altitude 4500
Route EPKWF DCT EPWRG DCT EPWRS
Aircraft P28A/L-S/C

Departure

Time N/A
Airport Bielsko-Biała Kaniów Airfield (EPKW)

Arrival

Time 2026-05-03 20:47
Airport Copernicus Wrocław Airport (EPWR)
Time Latitude Longitude Altitude Speed Heading
2026-05-03 20:15 50.48121 17.94477 2711 ft 139 kts 282°
2026-05-03 20:15 50.48518 17.93073 2581 ft 143 kts 279°
2026-05-03 20:15 50.48863 17.91664 2580 ft 137 kts 281°
2026-05-03 20:15 50.49236 17.90285 2461 ft 137 kts 279°
2026-05-03 20:16 50.49523 17.88910 2381 ft 131 kts 272°
2026-05-03 20:16 50.49801 17.87561 2420 ft 127 kts 282°
2026-05-03 20:16 50.50237 17.86301 2371 ft 135 kts 288°
2026-05-03 20:16 50.50729 17.85074 2415 ft 134 kts 291°
2026-05-03 20:17 50.51201 17.83792 2407 ft 126 kts 284°
2026-05-03 20:17 50.51799 17.82699 2413 ft 142 kts 311°
2026-05-03 20:17 50.52619 17.81879 2517 ft 141 kts 323°
2026-05-03 20:17 50.53543 17.81294 2500 ft 145 kts 329°
2026-05-03 20:18 50.54494 17.80723 2479 ft 149 kts 328°
2026-05-03 20:18 50.55439 17.80075 2514 ft 149 kts 328°
2026-05-03 20:18 50.56369 17.79368 2451 ft 148 kts 322°
2026-05-03 20:18 50.57216 17.78599 2570 ft 136 kts 319°
2026-05-03 20:19 50.58063 17.77810 2491 ft 143 kts 321°
2026-05-03 20:19 50.58900 17.77010 2500 ft 142 kts 319°
2026-05-03 20:19 50.59739 17.76250 2533 ft 139 kts 321°
2026-05-03 20:19 50.60570 17.75542 2562 ft 135 kts 322°
2026-05-03 20:20 50.61368 17.74713 2526 ft 135 kts 315°
2026-05-03 20:20 50.62124 17.73883 2531 ft 134 kts 313°
2026-05-03 20:20 50.62833 17.72940 2535 ft 129 kts 307°
2026-05-03 20:20 50.63507 17.71971 2463 ft 134 kts 306°
2026-05-03 20:21 50.64149 17.70952 2474 ft 130 kts 303°
2026-05-03 20:21 50.64732 17.69915 2479 ft 126 kts 298°
2026-05-03 20:21 50.65315 17.68847 2463 ft 128 kts 299°
2026-05-03 20:21 50.65871 17.67732 2404 ft 130 kts 299°
2026-05-03 20:22 50.66420 17.66646 2432 ft 123 kts 293°
2026-05-03 20:22 50.66830 17.65479 2462 ft 120 kts 286°
2026-05-03 20:22 50.67230 17.64327 2493 ft 120 kts 287°
2026-05-03 20:22 50.67610 17.63157 2509 ft 119 kts 284°
2026-05-03 20:23 50.67911 17.61972 2545 ft 114 kts 277°
2026-05-03 20:23 50.68094 17.60759 2512 ft 114 kts 268°
2026-05-03 20:23 50.68159 17.59527 2557 ft 112 kts 264°
2026-05-03 20:23 50.68212 17.58273 2505 ft 119 kts 263°
2026-05-03 20:24 50.68250 17.56993 2560 ft 115 kts 267°
2026-05-03 20:24 50.68464 17.55695 2528 ft 131 kts 283°
2026-05-03 20:24 50.68803 17.54430 2639 ft 123 kts 283°
2026-05-03 20:24 50.69145 17.53178 2629 ft 122 kts 282°
2026-05-03 20:25 50.69426 17.51947 2577 ft 123 kts 279°
2026-05-03 20:25 50.69738 17.50691 2533 ft 120 kts 280°
2026-05-03 20:25 50.70085 17.49491 2473 ft 123 kts 284°
2026-05-03 20:25 50.70404 17.48260 2472 ft 117 kts 281°
2026-05-03 20:26 50.70741 17.47061 2422 ft 120 kts 288°
2026-05-03 20:26 50.71166 17.45927 2430 ft 119 kts 293°
2026-05-03 20:26 50.71636 17.44859 2452 ft 117 kts 296°
2026-05-03 20:26 50.72140 17.43884 2491 ft 117 kts 301°
2026-05-03 20:27 50.72723 17.42943 2455 ft 121 kts 306°
2026-05-03 20:27 50.73337 17.42020 2456 ft 121 kts 307°
2026-05-03 20:27 50.73976 17.41149 2426 ft 124 kts 310°
2026-05-03 20:27 50.74630 17.40274 2469 ft 120 kts 309°
2026-05-03 20:28 50.75266 17.39413 2467 ft 121 kts 310°
2026-05-03 20:28 50.75917 17.38549 2417 ft 123 kts 310°
2026-05-03 20:28 50.76591 17.37731 2446 ft 119 kts 316°
2026-05-03 20:28 50.77284 17.36968 2432 ft 124 kts 316°
2026-05-03 20:29 50.77985 17.36230 2434 ft 124 kts 314°
2026-05-03 20:29 50.78686 17.35391 2349 ft 129 kts 313°
2026-05-03 20:29 50.79377 17.34524 2383 ft 123 kts 311°
2026-05-03 20:29 50.79899 17.33512 2529 ft 117 kts 290°
2026-05-03 20:30 50.80334 17.32370 2556 ft 124 kts 290°
2026-05-03 20:30 50.80743 17.31141 2511 ft 127 kts 284°
2026-05-03 20:30 50.81144 17.29865 2458 ft 130 kts 285°
2026-05-03 20:30 50.81387 17.29035 2522 ft 117 kts 283°
2026-05-03 20:31 50.81695 17.28026 2492 ft 110 kts 285°
2026-05-03 20:31 50.82053 17.26940 2355 ft 113 kts 286°
2026-05-03 20:31 50.82412 17.25813 2192 ft 117 kts 287°
2026-05-03 20:31 50.82770 17.24657 2168 ft 114 kts 286°
2026-05-03 20:32 50.83222 17.23644 2299 ft 116 kts 301°
2026-05-03 20:32 50.83803 17.22800 2432 ft 115 kts 310°
2026-05-03 20:32 50.84473 17.22047 2418 ft 126 kts 319°
2026-05-03 20:32 50.85154 17.21320 2518 ft 117 kts 310°
2026-05-03 20:33 50.85843 17.20506 2485 ft 126 kts 315°
2026-05-03 20:33 50.86570 17.19700 2425 ft 132 kts 311°
2026-05-03 20:33 50.87221 17.18726 2443 ft 123 kts 297°
2026-05-03 20:33 50.87616 17.17482 1750 ft 137 kts 270°
2026-05-03 20:34 50.87763 17.16169 1710 ft 111 kts 274°
2026-05-03 20:34 50.87999 17.14991 1355 ft 116 kts 285°
2026-05-03 20:34 50.88374 17.13949 1285 ft 107 kts 302°
2026-05-03 20:34 50.88991 17.13188 1306 ft 110 kts 321°
2026-05-03 20:35 50.89589 17.12505 1412 ft 101 kts 310°
2026-05-03 20:35 50.90033 17.11653 1431 ft 99 kts 291°
2026-05-03 20:35 50.90369 17.10685 1448 ft 102 kts 290°
2026-05-03 20:35 50.90715 17.09698 1460 ft 104 kts 289°
2026-05-03 20:36 50.91114 17.08731 1521 ft 103 kts 297°
2026-05-03 20:36 50.91520 17.07836 1538 ft 103 kts 295°
2026-05-03 20:36 50.92162 17.07090 1511 ft 106 kts 313°
2026-05-03 20:36 50.92738 17.06312 1470 ft 112 kts 310°
2026-05-03 20:37 50.93217 17.05472 1478 ft 108 kts 294°
2026-05-03 20:37 50.93629 17.04452 1424 ft 110 kts 290°
2026-05-03 20:37 50.93841 17.03299 1360 ft 107 kts 266°
2026-05-03 20:37 50.93846 17.02108 1331 ft 108 kts 265°
2026-05-03 20:38 50.93901 17.00940 1323 ft 108 kts 271°
2026-05-03 20:38 50.94198 16.99762 1208 ft 120 kts 296°
2026-05-03 20:38 50.94670 16.98663 1189 ft 120 kts 298°
2026-05-03 20:38 50.95098 16.97575 1229 ft 114 kts 292°
2026-05-03 20:39 50.95426 16.96458 1214 ft 111 kts 287°
2026-05-03 20:39 50.95719 16.95314 1177 ft 115 kts 287°
2026-05-03 20:39 50.96036 16.94138 1184 ft 118 kts 287°
2026-05-03 20:39 50.96322 16.92927 1287 ft 115 kts 281°
2026-05-03 20:40 50.96626 16.91732 1300 ft 121 kts 290°
2026-05-03 20:40 50.97071 16.90549 1276 ft 125 kts 299°
2026-05-03 20:40 50.97597 16.89455 1303 ft 125 kts 301°
2026-05-03 20:40 50.98070 16.88310 1329 ft 122 kts 291°
2026-05-03 20:41 50.98425 16.87143 1394 ft 117 kts 286°
2026-05-03 20:41 50.98749 16.85912 1448 ft 125 kts 283°
2026-05-03 20:41 50.99108 16.84637 1437 ft 128 kts 287°
2026-05-03 20:41 50.99769 16.83689 1507 ft 139 kts 340°
2026-05-03 20:42 51.00750 16.83968 1447 ft 149 kts 22°
2026-05-03 20:42 51.01633 16.84566 1448 ft 133 kts 21°
2026-05-03 20:42 51.02481 16.85034 1398 ft 124 kts 17°
2026-05-03 20:42 51.03286 16.85509 1356 ft 122 kts 21°
2026-05-03 20:43 51.04086 16.85946 1278 ft 120 kts 18°
2026-05-03 20:43 51.04852 16.86342 1240 ft 116 kts 18°
2026-05-03 20:43 51.05612 16.86708 1225 ft 116 kts 18°
2026-05-03 20:43 51.06411 16.87131 1285 ft 127 kts 17°
2026-05-03 20:44 51.07308 16.87557 1352 ft 142 kts 14°
2026-05-03 20:44 51.08284 16.87621 1386 ft 141 kts 336°
2026-05-03 20:44 51.08960 16.86670 1474 ft 124 kts 290°
2026-05-03 20:44 51.09461 16.85648 1507 ft 116 kts 300°
2026-05-03 20:45 51.09953 16.84635 1308 ft 116 kts 298°
2026-05-03 20:45 51.10373 16.83595 1072 ft 106 kts 296°
2026-05-03 20:45 51.10877 16.82820 886 ft 99 kts 338°
2026-05-03 20:45 51.11470 16.83067 825 ft 89 kts 51°
2026-05-03 20:46 51.11617 16.83915 815 ft 79 kts 100°
2026-05-03 20:46 51.11433 16.84743 735 ft 81 kts 119°
2026-05-03 20:46 51.11195 16.85566 637 ft 84 kts 118°
2026-05-03 20:46 51.10943 16.86392 532 ft 82 kts 121°
2026-05-03 20:47 51.10700 16.87181 448 ft 79 kts 122°
2026-05-03 20:47 51.10468 16.87943 417 ft 74 kts 124°
2026-05-03 20:47 51.10250 16.88628 413 ft 64 kts 122°
2026-05-03 20:47 51.10076 16.89188 408 ft 45 kts 114°
2026-05-03 20:48 51.09973 16.89545 408 ft 28 kts 115°
2026-05-03 20:48 51.09897 16.89748 407 ft 14 kts 154°
2026-05-03 20:48 51.09823 16.89723 406 ft 10 kts 205°
2026-05-03 20:48 51.09756 16.89671 406 ft 11 kts 204°
2026-05-03 20:49 51.09682 16.89613 406 ft 12 kts 210°
2026-05-03 20:49 51.09645 16.89507 405 ft 13 kts 277°
2026-05-03 20:49 51.09661 16.89358 405 ft 15 kts 284°
2026-05-03 20:49 51.09680 16.89192 405 ft 16 kts 277°
2026-05-03 20:50 51.09700 16.89011 405 ft 17 kts 278°
2026-05-03 20:50 51.09723 16.88819 405 ft 18 kts 289°
2026-05-03 20:50 51.09800 16.88651 405 ft 19 kts 316°
2026-05-03 20:50 51.09880 16.88498 405 ft 17 kts 318°
2026-05-03 20:51 51.09951 16.88361 405 ft 15 kts 310°
2026-05-03 20:51 51.09925 16.88290 405 ft 0 kts 220°
2026-05-03 20:51 51.09924 16.88288 405 ft 0 kts 220°